Weather History for Rochester, NH

Change the Weather History Date:

Tuesday, April 2, 2013

  Actual Average (KSFM) Record (KSFM)
Temperature  
Mean Temperature 32 °F -  
Max Temperature 39 °F 46 °F 60 °F (2004)
Min Temperature 28 °F 27 °F 23 °F (2014)
Degree Days  
Heating Degree Days 32    
Moisture  
Dew Point 8 °F    
Average Humidity 36    
Maximum Humidity 44    
Minimum Humidity 26    
Precipitation  
Precipitation 0.00 in - - ()
Sea Level Pressure  
Sea Level Pressure 29.80 in    
Wind  
Wind Speed 7 mph (West)    
Max Wind Speed 12 mph    
Max Gust Speed 32 mph    
Visibility 10 miles    
Events Snow    
Averages and records for this station are not official NWS values.
T = Trace of Precipitation, MM = Missing Value Source: NWS Daily Summary

Daily Weather History Graph

Daily Weather History Graph

Search for Another Location

Airport:

Trip Planner

Search our weather history database for the weather conditions in past years. The results will help you decide how hot, cold, wet, or windy it might be!

Date:

Astronomy

Apr. 02, 2013 Rise Set
Actual Time 6:23 AM EDT 7:11 PM EDT
Civil Twilight 5:54 AM EDT 7:40 PM EDT
Nautical Twilight 5:20 AM EDT 8:14 PM EDT
Astronomical Twilight 4:44 AM EDT 8:50 PM EDT
Moon 1:20 AM EDT (4/2) 11:04 AM EDT (4/2)
Length of Visible Light 13h 45m
Length of Day
12h 48m
Waning Gibbous, 56% of the Moon is Illuminated
Apr 2
Waning Gibbous
Apr 3
Last Quarter
Apr 10
New
Apr 18
First Quarter
Apr 25
Full

Hourly Weather History & Observations

Time (EDT) Temp. Windchill Dew Point Humidity Pressure Visibility Wind Dir Wind Speed Gust Speed Precip Events Conditions
12:51 AM 32.0 °F 24.8 °F 10.0 °F 40% 29.74 in 10.0 mi WNW 8.1 mph 21.9 mph N/A   Clear
1:51 AM 30.9 °F 25.2 °F 10.0 °F 42% 29.76 in 10.0 mi Variable 5.8 mph - N/A   Clear
2:51 AM 30.0 °F 21.7 °F 7.0 °F 38% 29.75 in 10.0 mi WNW 9.2 mph 17.3 mph N/A   Clear
4:51 AM 28.9 °F 21.9 °F 5.0 °F 36% 29.77 in 10.0 mi Variable 6.9 mph - N/A   Clear
5:51 AM 28.0 °F 24.2 °F 6.1 °F 39% 29.78 in 10.0 mi Variable 3.5 mph - N/A   Clear
6:51 AM 28.0 °F 24.2 °F 7.0 °F 41% 29.79 in 10.0 mi WSW 3.5 mph - N/A   Clear
7:51 AM 30.0 °F 23.2 °F 7.0 °F 38% 29.81 in 10.0 mi Variable 6.9 mph - N/A   Clear
9:51 AM 33.1 °F 24.9 °F 5.0 °F 31% 29.81 in 10.0 mi WNW 10.4 mph 26.5 mph N/A   Partly Cloudy
10:51 AM 34.0 °F 27.2 °F 7.0 °F 32% 29.81 in 10.0 mi WNW 8.1 mph 23.0 mph N/A   Overcast
11:51 AM 35.1 °F 26.9 °F 7.0 °F 31% 29.80 in 10.0 mi West 11.5 mph 21.9 mph N/A   Overcast
12:51 PM 36.0 °F 30.3 °F 6.1 °F 29% 29.78 in 10.0 mi Variable 6.9 mph 25.3 mph N/A   Overcast
1:51 PM 37.0 °F 30.4 °F 5.0 °F 26% 29.76 in 10.0 mi West 9.2 mph 26.5 mph N/A   Mostly Cloudy
4:51 PM 35.1 °F 29.3 °F 15.1 °F 44% 29.77 in 8.0 mi Variable 6.9 mph 17.3 mph 0.00 in Snow Light Snow
5:51 PM 36.0 °F 31.1 °F 10.0 °F 34% 29.78 in 10.0 mi Variable 5.8 mph 16.1 mph N/A   Overcast
6:51 PM 34.0 °F 25.5 °F 7.0 °F 32% 29.80 in 10.0 mi West 11.5 mph 32.2 mph N/A   Mostly Cloudy
8:51 PM 32.0 °F 26.4 °F 9.0 °F 38% 29.85 in 10.0 mi Variable 5.8 mph 18.4 mph N/A   Partly Cloudy
9:51 PM 32.0 °F 23.0 °F 10.0 °F 40% 29.86 in 10.0 mi West 11.5 mph 18.4 mph N/A   Clear
10:51 PM 30.9 °F 24.3 °F 9.0 °F 40% 29.86 in 10.0 mi Variable 6.9 mph - N/A   Clear
11:51 PM 30.9 °F 26.2 °F 9.0 °F 40% 29.85 in 10.0 mi Variable 4.6 mph - N/A   Clear